Regional Weather Roundup
Issued by NWS

Home | Current Version | Previous Version | Text Only | Print | Product List | Glossary Off
Versions: 1 2 3 4 5 6 7 8 9 10 11 12 13 14 15 16 17 18 19 20 21 22 23 24 25 26 27 28 29 30 31 32 33 34 35 36 37 38 39 40 41 42 43 44 45 46 47 48 49 50

000
ASUS43 KMPX 220310
RWRMN
WEATHER ROUNDUP FOR MINNESOTA
NATIONAL WEATHER SERVICE TWIN CITIES/CHANHASSEN MN
1000 PM CDT SUN SEP 21 2014


NOTE: "FAIR" INDICATES FEW OR NO CLOUDS BELOW 12,000 FEET WITH NO
SIGNIFICANT WEATHER AND/OR OBSTRUCTIONS TO VISIBILITY. N/A MEANS
CURRENT SKY AND/OR WEATHER CONDITIONS ARE NOT AVAILABLE.

MNZ060>063-068>070-220400-
   Twin Cities Metro

CITY           SKY/WX    TMP DP  RH WIND       PRES   REMARKS
TWIN CITIES    CLEAR     55  48  77 W5        30.21R
ST PAUL        CLEAR     54  49  83 CALM      30.22R
CRYSTAL        CLEAR     54  48  80 CALM      30.21R
BLAINE         CLEAR     52  50  93 CALM      30.22R
LAKEVILLE      CLEAR     48  46  93 CALM      30.22R
EDEN PRAIRIE   CLEAR     55  50  83 CALM      30.21R
SOUTH ST PAUL  CLEAR     54  48  81 CALM      30.21R
LAKE ELMO      FAIR      46  45  93 CALM      30.22R
$$
MNZ001>005-007-008-013>017-022>024-027-028-220400-
   Northwest Minnesota

CITY           SKY/WX    TMP DP  RH WIND       PRES   REMARKS
BEMIDJI        PTCLDY    52  49  88 SW5       30.21S
HALLOCK        CLEAR     50  46  87 S6        30.16F
ROSEAU         CLEAR     50  45  81 SW5       30.17F
WARROAD        CLEAR     52  46  82 SW5       30.17F
THIEF RVR FALL CLEAR     48  46  93 CALM      30.19F
CROOKSTON      CLEAR     48  46  93 S5        30.21R
FOSSTON        CLEAR     43  43 100 CALM      30.22S
DETROIT LAKES  CLEAR     50  48  93 CALM      30.24S
MOORHEAD       CLEAR     54  54 100 SE5       30.23S
PARK RAPIDS    CLEAR     46  44  93 W3        30.22S
MAHNOMEN       FAIR      47  46  93 S5        30.22S
$$
MNZ006-009>011-018-025>026-220400-
   North Central Minnesota

CITY           SKY/WX    TMP DP  RH WIND       PRES   REMARKS
BAUDETTE       CLOUDY    52  49  89 VRB3      30.17S
FLAG ISLAND    CLEAR     54  48  82 SW9       30.14S
INTL FALLS     MOCLDY    50  47  89 W3        30.16S
WASKISH        CLEAR     55  52  88 CALM      30.20R
BIG FORK       PTCLDY    52  48  87 CALM      30.20R
LONGVILLE      CLEAR     46  46 100 CALM      30.21S
GRAND RAPIDS   CLEAR     48  45  87 W3        30.20S
CRANE LAKE     CLOUDY    48  46  93 CALM      30.17F
ORR            CLOUDY    50  46  87 CALM      30.15S
COOK           CLOUDY    50  46  87 CALM      30.18S
WALKER         FAIR      47  46  95 CALM      30.22S
$$
MNZ012-019>021-037-220400-
   Northeast Minnesota

CITY           SKY/WX    TMP DP  RH WIND       PRES   REMARKS
DULUTH         CLEAR     49  43  80 W3        30.18S
ELY            MOCLDY    45  41  87 CALM      30.16S
HIBBING        PTCLDY    44  42  93 CALM      30.18S
EVELETH        MOCLDY    46  45  93 CALM      30.18S
DULUTH HARBOR  CLEAR     55  50  82 W6        30.19R
TWO HARBORS    CLEAR     45  39  81 NW3       30.16R
SILVER BAY     CLEAR     39  39 100 CALM      30.15S
GRAND MARAIS     N/A     45  43  93 CALM      30.13S
G MARAIS ARPRT CLEAR     45  39  81 NW3       30.14F
$$
MNZ029>031-032-039>041-046>048-054>057-064-220400-
   West Central Minnesota

CITY           SKY/WX    TMP DP  RH WIND       PRES   REMARKS
FERGUS FALLS   CLEAR     52  48  87 CALM      30.24S
WHEATON        CLEAR     48  46  93 SE5       30.26S
MORRIS         CLEAR     50  46  87 CALM      30.24S
ALEXANDRIA     CLEAR     49  47  93 CALM      30.25S
ELBOW LAKE     FAIR      49  47  93 CALM      30.24S
WADENA         CLEAR     45  45 100 CALM      30.23S FOG
GLENWOOD       CLEAR     52  48  87 CALM      30.25S
APPLETON       CLEAR     52  46  82 CALM      30.24S
BENSON         CLEAR     46  46 100 CALM      30.25R
ORTONVILLE     CLEAR     52  48  87 CALM      30.25R
MADISON        CLEAR     54  50  87 CALM      30.25S
WILLMAR        FAIR      52  46  82 CALM      30.26S
$$
MNZ033>034-036-042>043-049>051-058-059-220400-
   Central Minnesota

CITY           SKY/WX    TMP DP  RH WIND       PRES   REMARKS
ST CLOUD       CLEAR     54  49  83 NW7       30.23R
SAUK CENTRE    FAIR      47  46  95 CALM      30.24S
PAYNESVILLE    CLEAR     46  45  97 S3        30.25R
AITKIN         CLEAR     50  45  81 CALM      30.20S
PINE RIVER     CLEAR     48  46  93 CALM      30.25S
BRAINERD       CLEAR     52  48  86 NW5       30.23R
STAPLES        CLEAR     46  46 100 CALM      30.23S
LONG PRAIRIE   FAIR      46  45  93 CALM      30.25R
LITTLE FALLS   CLEAR     50  46  87 CALM      30.23S
LITCHFIELD     CLEAR     55  52  88 NW6       30.25R
BUFFALO        CLEAR     55  49  82 W5        30.24R
MAPLE LAKE     CLEAR     54  51  89 W5        30.24R
$$
MNZ037-044-045-052-053-220400-
   East Central Minnesota

CITY           SKY/WX    TMP DP  RH WIND       PRES   REMARKS
PRINCETON      CLEAR     50  46  87 NW2       30.22R
MORA           CLEAR     46  45  93 CALM      30.23R
CAMBRIDGE      CLEAR     50  43  76 CALM      30.20R
RUSH CITY      MOCLDY    46  45  94 CALM      30.21R
MOOSE LAKE     CLEAR     45  43  93 CALM      30.18S
HINCKLEY       FAIR      45  45 100 CALM      30.21R
CLOQUET        CLEAR     45  43  93 W3        30.19S
MCGREGOR       CLEAR     46  45  93 CALM      30.21R
$$
MNZ071>073-080-081-089-090-097-098-220400-
   Southwest Minnesota

CITY           SKY/WX    TMP DP  RH WIND       PRES   REMARKS
MONTEVIDEO     CLEAR     52  46  82 CALM      30.26R
GRANITE FALLS  CLEAR     47  44  88 CALM      30.26S
CANBY          CLEAR     47  46  93 CALM      30.27R
MARSHALL       CLEAR     48  43  81 CALM      30.25R
REDWOOD FALLS  CLEAR     54  49  83 NW5       30.25R
OLIVIA         CLEAR     50  45  81 CALM      30.24S
PIPESTONE      CLEAR     54  46  76 CALM      30.26S
WINDOM         CLEAR     50  46  87 CALM      30.26R
WORTHINGTON    CLEAR     50  45  81 NW3       30.27R
JACKSON        CLEAR     50  45  81 NW6       30.26R
TRACY          CLEAR     51  47  88 CALM      30.26S
SLAYTON        CLEAR     49  46  87 CALM      30.27S
$$
MNZ065>067-074>077-082>085-091>093-220400-
   South Central Minnesota

CITY           SKY/WX    TMP DP  RH WIND       PRES   REMARKS
MANKATO        CLEAR     55  45  67 NW7       30.24R
NEW ULM        CLEAR     48  48 100 W5        30.25R
ST JAMES       CLEAR     50  46  87 CALM      30.26R
FAIRMONT       CLEAR     52  45  76 NW5       30.25R
GLENCOE        CLEAR     54  48  81 NW7       30.24R
FARIBAULT      CLEAR     52  46  82 W5        30.23R
OWATONNA       CLEAR     48  46  93 CALM      30.22S
WASECA         CLEAR     46  43  87 W5        30.25R
ALBERT LEA     CLEAR     52  50  93 CALM      30.23R
$$
MNZ078>079-086>088-094>096-220400-
   Southeast Minnesota

CITY           SKY/WX    TMP DP  RH WIND       PRES   REMARKS
ROCHESTER      CLEAR     50  46  86 NW7       30.22R
RED WING       CLEAR     50  46  87 N3        30.20R
STANTON        CLEAR     50  47  90 CALM      30.20S
DODGE CENTER   CLEAR     54  48  82 CALM      30.22R
WINONA         CLEAR     54  50  87 CALM      30.20S
AUSTIN         CLEAR     52  48  87 NW3       30.22R
PRESTON        CLEAR     50  48  93 NW3       30.22R
$$
ABBREVIATIONS USED IN REMARKS
   TC - TEMPERATURES IN CELSIUS
  WCI - WIND CHILL INDEX
   HX - HEAT INDEX
  VSB - VISIBILITY
$$



USA.gov is the U.S. government's official web portal to all federal, state and local government web resources and services.